Date String (YYYY-MM-DD hh:mm:ss) UTC,Instrument flags,absolute air pressure of the measurement (hPa),sample flow rate (lpm),inlet stack bypass flow (lpm),air temperature of the measurement (°C),ambient temperature measured by the external sensor (°C),aerosol sample conditioner tube jacket temperature (°C),OPC LED temperature (°C),internal box temperature (°C),relative humidity of the measurement (%),span deviation,mass concentration of particles derived from Lorenz-Mie calculation of OPC scattering (μg/m³),mass concentration of particles derived from Lorenz-Mie calculation of OPC scattering (μg/m³),mass concentration of particles derived from Lorenz-Mie calculation of OPC scattering (μg/m³)
DateTimeUTC,F1_M11,P_M11,Q1_M11,Q2_M11,T1_M11,T2_M11,T3_M11,T4_M11,T5_M11,U1_M11,ZSPAN_M11,X0_M11,X2_M11,X1_M11
2023-07-30 07:00:00,SystemResetWarning,0837.1,5.02,000.00,032.0,025.8,000.0,039.5,031.7,34.7,0000.0,0023.43,0007.77,0005.87
2023-07-30 07:01:00,SystemResetWarning,0837.0,5.00,000.00,031.9,025.7,000.0,039.5,031.4,34.8,0000.0,0023.02,0007.71,0005.87
2023-07-30 07:02:00,SystemResetWarning,0836.9,5.00,000.00,031.8,026.0,000.0,039.6,031.3,35.4,0000.0,0023.78,0007.62,0005.85
2023-07-30 07:03:00,SystemResetWarning,0837.0,5.02,000.00,031.9,026.3,000.0,039.6,031.4,35.4,0000.0,0023.58,0007.55,0005.82
2023-07-30 07:04:00,SystemResetWarning,0837.0,5.01,000.00,032.2,026.7,000.0,039.7,031.6,34.9,0000.0,0024.12,0007.51,0005.81
2023-07-30 07:05:00,SystemResetWarning,0836.9,4.99,000.00,032.4,027.1,000.0,039.7,031.8,34.4,0000.0,0024.39,0007.56,0005.80
2023-07-30 07:06:00,SystemResetWarning,0837.0,4.99,000.00,032.5,027.4,000.0,039.8,031.8,34.2,0000.0,0023.73,0007.54,0005.79
2023-07-30 07:07:00,SystemResetWarning,0837.0,5.00,000.00,032.5,027.6,000.0,039.8,031.8,34.2,0000.0,0022.34,0007.46,0005.78
2023-07-30 07:08:00,SystemResetWarning,0836.9,5.02,000.00,032.6,027.8,000.0,039.9,031.8,34.1,0000.0,0021.27,0007.45,0005.77
2023-07-30 07:09:00,SystemResetWarning,0837.0,5.00,000.00,032.6,028.0,000.0,040.0,031.9,34.1,0000.0,0020.67,0007.48,0005.77
2023-07-30 07:10:00,SystemResetWarning,0837.0,5.00,000.00,032.6,028.1,000.0,040.1,031.9,34.1,0000.0,0020.67,0007.50,0005.77
2023-07-30 07:11:00,SystemResetWarning,0836.9,5.00,000.00,032.5,028.3,000.0,040.1,032.0,34.1,0000.0,0019.81,0007.45,0005.75
2023-07-30 07:12:00,SystemResetWarning,0836.9,5.00,000.00,032.5,028.4,000.0,040.2,032.0,33.9,0000.0,0019.46,0007.47,0005.76
2023-07-30 07:13:00,SystemResetWarning,0836.9,5.00,000.00,032.5,028.3,000.0,040.2,032.0,33.7,0000.0,0018.27,0007.47,0005.76
2023-07-30 07:14:00,SystemResetWarning,0836.9,4.99,000.00,032.5,026.8,000.0,040.1,031.9,33.7,0000.0,0017.50,0007.42,0005.76
2023-07-30 07:15:00,SystemResetWarning,0836.9,5.01,000.00,032.4,025.8,000.0,040.0,031.7,33.8,0000.0,0017.11,0007.41,0005.75
2023-07-30 07:16:00,SystemResetWarning,0837.0,5.01,000.00,032.3,025.7,000.0,040.0,031.4,33.8,0000.0,0016.95,0007.33,0005.73
2023-07-30 07:17:00,SystemResetWarning,0837.0,5.00,000.00,032.1,026.0,000.0,040.0,031.4,34.0,0000.0,0016.68,0007.30,0005.71
2023-07-30 07:18:00,SystemResetWarning,0837.0,5.00,000.00,032.0,026.4,000.0,040.0,031.4,34.1,0000.0,0017.51,0007.32,0005.70
2023-07-30 07:19:00,SystemResetWarning,0837.0,5.00,000.00,031.9,026.8,000.0,040.0,031.5,33.8,0000.0,0018.15,0007.28,0005.69
2023-07-30 07:20:00,SystemResetWarning,0837.0,4.99,000.00,031.8,027.1,000.0,040.0,031.6,33.8,0000.0,0018.45,0007.29,0005.69
2023-07-30 07:21:00,SystemResetWarning,0837.0,5.01,000.00,031.8,027.4,000.0,040.0,031.6,34.2,0000.0,0018.51,0007.29,0005.68
2023-07-30 07:22:00,SystemResetWarning,0837.0,5.01,000.00,031.7,027.6,000.0,039.9,031.6,34.2,0000.0,0019.91,0007.33,0005.66
2023-07-30 07:23:00,SystemResetWarning,0836.9,5.00,000.00,031.7,027.8,000.0,039.9,031.7,34.0,0000.0,0020.75,0007.37,0005.62
2023-07-30 07:24:00,SystemResetWarning,0836.9,5.00,000.00,031.6,028.0,000.0,039.9,031.7,34.1,0000.0,0021.25,0007.36,0005.60
2023-07-30 07:25:00,SystemResetWarning,0837.0,5.01,000.00,031.6,028.1,000.0,039.9,031.7,34.3,0000.0,0021.47,0007.38,0005.58
2023-07-30 07:26:00,SystemResetWarning,0837.0,5.00,000.00,031.6,028.2,000.0,039.8,031.8,34.1,0000.0,0021.22,0007.35,0005.57
2023-07-30 07:27:00,SystemResetWarning,0836.9,5.01,000.00,031.5,028.3,000.0,039.8,031.7,33.7,0000.0,0020.62,0007.33,0005.56
2023-07-30 07:28:00,SystemResetWarning,0836.9,5.00,000.00,031.5,028.4,000.0,039.8,031.8,33.6,0000.0,0021.25,0007.29,0005.56
2023-07-30 07:29:00,SystemResetWarning,0836.9,4.98,000.00,031.5,027.6,000.0,039.7,031.8,33.4,0000.0,0020.62,0007.24,0005.57
2023-07-30 07:30:00,SystemResetWarning,0836.8,5.01,000.00,031.4,026.1,000.0,039.5,031.5,33.7,0000.0,0021.06,0007.26,0005.56
2023-07-30 07:31:00,SystemResetWarning,0836.8,5.00,000.00,031.3,025.6,000.0,039.4,031.3,33.5,0000.0,0022.00,0007.23,0005.53
2023-07-30 07:32:00,SystemResetWarning,0836.8,5.01,000.00,031.1,025.8,000.0,039.4,031.1,33.4,0000.0,0021.85,0007.24,0005.54
2023-07-30 07:33:00,SystemResetWarning,0836.8,5.00,000.00,031.0,026.2,000.0,039.4,031.2,33.4,0000.0,0020.88,0007.20,0005.55
2023-07-30 07:34:00,SystemResetWarning,0836.8,5.00,000.00,030.9,026.6,000.0,039.4,031.2,33.5,0000.0,0020.43,0007.09,0005.56
2023-07-30 07:35:00,SystemResetWarning,0836.7,5.00,000.00,030.9,026.9,000.0,039.4,031.3,33.6,0000.0,0020.03,0007.13,0005.57
2023-07-30 07:36:00,SystemResetWarning,0836.7,5.01,000.00,030.8,027.2,000.0,039.3,031.3,33.8,0000.0,0020.80,0007.12,0005.58
2023-07-30 07:37:00,SystemResetWarning,0836.7,5.01,000.00,030.8,027.5,000.0,039.3,031.4,33.7,0000.0,0021.20,0007.11,0005.59
2023-07-30 07:38:00,SystemResetWarning,0836.7,5.00,000.00,030.8,027.7,000.0,039.3,031.4,33.6,0000.0,0021.20,0007.11,0005.60
2023-07-30 07:39:00,SystemResetWarning,0836.7,5.00,000.00,030.8,027.8,000.0,039.2,031.4,33.6,0000.0,0020.29,0007.14,0005.61
2023-07-30 07:40:00,SystemResetWarning,0836.7,4.99,000.00,030.7,028.0,000.0,039.2,031.5,34.0,0000.0,0020.15,0007.15,0005.60
2023-07-30 07:41:00,SystemResetWarning,0836.6,5.00,000.00,030.7,028.1,000.0,039.2,031.5,33.8,0000.0,0019.56,0007.15,0005.59
2023-07-30 07:42:00,SystemResetWarning,0836.6,5.00,000.00,030.7,028.2,000.0,039.2,031.6,33.3,0000.0,0019.54,0007.15,0005.61
2023-07-30 07:43:00,SystemResetWarning,0836.6,4.99,000.00,030.7,028.3,000.0,039.1,031.6,32.7,0000.0,0020.11,0007.12,0005.60
2023-07-30 07:44:00,SystemResetWarning,0836.6,5.00,000.00,030.7,028.4,000.0,039.1,031.6,32.0,0000.0,0020.62,0007.15,0005.59
2023-07-30 07:45:00,SystemResetWarning,0836.6,4.98,000.00,030.7,027.6,000.0,039.0,031.5,31.5,0000.0,0020.75,0007.14,0005.60
2023-07-30 07:46:00,SystemResetWarning,0836.6,5.00,000.00,030.6,026.1,000.0,038.9,031.3,31.4,0000.0,0021.11,0007.08,0005.60
2023-07-30 07:47:00,SystemResetWarning,0836.5,5.02,000.00,030.5,025.7,000.0,038.8,031.1,31.4,0000.0,0020.44,0007.14,0005.59
2023-07-30 07:48:00,SystemResetWarning,0836.5,5.00,000.00,030.4,025.8,000.0,038.8,031.0,31.4,0000.0,0020.02,0007.15,0005.58
2023-07-30 07:49:00,SystemResetWarning,0836.5,5.00,000.00,030.3,026.2,000.0,038.8,031.0,31.5,0000.0,0020.18,0007.18,0005.57
2023-07-30 07:50:00,SystemResetWarning,0836.5,5.00,000.00,030.2,026.6,000.0,038.8,031.0,31.4,0000.0,0020.42,0007.18,0005.57
2023-07-30 07:51:00,SystemResetWarning,0836.5,4.99,000.00,030.2,026.9,000.0,038.8,031.1,31.5,0000.0,0020.75,0007.14,0005.57
2023-07-30 07:52:00,SystemResetWarning,0836.5,4.99,000.00,030.2,027.2,000.0,038.7,031.2,31.5,0000.0,0020.14,0007.10,0005.56
2023-07-30 07:53:00,SystemResetWarning,0836.5,5.01,000.00,030.2,027.4,000.0,038.7,031.2,31.4,0000.0,0018.96,0007.07,0005.53
2023-07-30 07:54:00,SystemResetWarning,0836.5,5.01,000.00,030.2,027.6,000.0,038.7,031.2,30.9,0000.0,0018.13,0007.04,0005.51
2023-07-30 07:55:00,SystemResetWarning,0836.5,5.00,000.00,030.2,027.8,000.0,038.7,031.2,30.8,0000.0,0017.46,0006.96,0005.50
2023-07-30 07:56:00,SystemResetWarning,0836.5,5.00,000.00,030.2,027.9,000.0,038.7,031.3,30.9,0000.0,0017.03,0006.91,0005.48
2023-07-30 07:57:00,SystemResetWarning,0836.5,4.99,000.00,030.2,028.1,000.0,038.7,031.3,30.7,0000.0,0016.41,0006.92,0005.46
2023-07-30 07:58:00,SystemResetWarning,0836.5,4.99,000.00,030.2,028.2,000.0,038.7,031.4,30.7,0000.0,0015.74,0006.89,0005.44
2023-07-30 07:59:00,SystemResetWarning,0836.5,5.00,000.00,030.2,028.3,000.0,038.6,031.4,31.0,0000.0,0016.06,0006.91,0005.42
